TimeEST,TemperatureF,Dew PointF,Humidity,Sea Level PressureIn,VisibilityMPH,Wind Direction,Wind SpeedMPH,Gust SpeedMPH,PrecipitationIn,Events,Conditions,WindDirDegrees,DateUTC
12:56 AM,21.0,18.0,88,30.30,10.0,Calm,Calm,-,N/A,,Clear,0,2012-12-07 05:56:00
1:56 AM,21.0,18.0,88,30.30,10.0,Calm,Calm,-,N/A,,Clear,0,2012-12-07 06:56:00
2:56 AM,21.0,18.0,88,30.29,10.0,Calm,Calm,-,N/A,,Clear,0,2012-12-07 07:56:00
3:56 AM,23.0,21.0,92,30.28,10.0,Calm,Calm,-,N/A,,Mostly Cloudy,0,2012-12-07 08:56:00
4:56 AM,26.1,24.1,92,30.26,10.0,Calm,Calm,-,N/A,,Overcast,0,2012-12-07 09:56:00
5:56 AM,28.0,26.1,92,30.26,10.0,Calm,Calm,-,N/A,,Overcast,0,2012-12-07 10:56:00
6:56 AM,30.0,28.0,92,30.25,10.0,Calm,Calm,-,N/A,,Overcast,0,2012-12-07 11:56:00
7:56 AM,32.0,30.9,96,30.24,10.0,Calm,Calm,-,N/A,,Overcast,0,2012-12-07 12:56:00
8:49 AM,39.2,35.6,87,30.24,10.0,Calm,Calm,-,N/A,,Overcast,0,2012-12-07 13:49:00
8:56 AM,41.0,36.0,82,30.24,10.0,Calm,Calm,-,N/A,,Overcast,0,2012-12-07 13:56:00
9:56 AM,44.1,36.0,73,30.24,10.0,South,5.8,-,N/A,,Overcast,170,2012-12-07 14:56:00
10:56 AM,44.1,36.0,73,30.21,10.0,South,9.2,-,N/A,,Overcast,170,2012-12-07 15:56:00
11:56 AM,46.0,37.9,73,30.18,10.0,South,8.1,-,N/A,,Partly Cloudy,170,2012-12-07 16:56:00
12:56 PM,46.0,37.9,73,30.15,10.0,South,10.4,17.3,N/A,,Clear,170,2012-12-07 17:56:00
1:56 PM,46.0,39.9,79,30.14,10.0,South,4.6,-,N/A,,Partly Cloudy,170,2012-12-07 18:56:00
2:56 PM,46.0,41.0,83,30.12,10.0,SSE,4.6,-,N/A,,Overcast,160,2012-12-07 19:56:00
3:56 PM,46.0,42.1,86,30.12,10.0,South,4.6,-,N/A,,Overcast,170,2012-12-07 20:56:00
4:56 PM,46.0,43.0,89,30.10,10.0,SSE,3.5,-,0.00,Rain,Light Rain,160,2012-12-07 21:56:00
5:56 PM,46.0,44.1,93,30.09,10.0,South,3.5,-,0.00,,Overcast,170,2012-12-07 22:56:00
6:56 PM,46.0,44.1,93,30.09,10.0,SSE,3.5,-,0.00,,Overcast,160,2012-12-07 23:56:00
7:56 PM,46.0,45.0,96,30.08,10.0,South,3.5,-,0.00,Rain,Light Rain,180,2012-12-08 00:56:00
8:56 PM,46.9,45.0,93,30.08,10.0,SW,3.5,-,0.00,,Overcast,220,2012-12-08 01:56:00
9:56 PM,46.0,45.0,96,30.08,10.0,SW,4.6,-,0.01,Rain,Light Rain,220,2012-12-08 02:56:00
10:15 PM,46.4,46.4,100,30.07,10.0,Calm,Calm,-,0.00,Rain,Light Rain,0,2012-12-08 03:15:00
10:56 PM,46.0,46.0,100,30.06,10.0,Calm,Calm,-,0.00,Rain,Light Rain,0,2012-12-08 03:56:00
11:37 PM,46.4,46.4,100,30.06,10.0,Calm,Calm,-,0.00,,Overcast,0,2012-12-08 04:37:00
11:56 PM,46.0,45.0,96,30.05,10.0,Calm,Calm,-,0.00,,Overcast,0,2012-12-08 04:56:00